Location: Unspecified
(0.0000°N, 0.0000°E)
Time: 20:06:17
(UTC+00:00)

Explorer 7 - Pass Details

Date: 18 June 2025
Orbit: 444 x 569 km, 50.3° (Epoch: 12 July)

Event Time Altitude Azimuth Distance (km) Brightness Sun altitude
Rises 23:31:13 0° 325° (NW) 2,471 - -65.5°
Reaches altitude 10° 23:33:18 10° 326° (NW) 1,616 - -65.6°
Maximum altitude 23:36:57 82° 52° (NE) 489 - -65.8°
Drops below altitude 10° 23:40:47 10° 141° (SE) 1,696 - -66.0°
Sets 23:43:02 0° 142° (SE) 2,606 - -66.2°
